Tracking 27107 objects as of 20-Mar-2023
HD Live streaming from Space Station
objects crossing your sky now

TJS-7

Track TJS-7 now!
TJS-7 is classified as:


NORAD ID: 49115
Int'l Code: 2021-077A
Perigee: 35,791.8 km
Apogee: 35,795.2 km
Inclination: 0.4 °
Period: 1,436.1 minutes
Semi major axis: 42164 km
RCS: Unknown
Launch date: August 24, 2021
Source: People's Republic of China (PRC)
Launch site: Xichang Space Center, China (XSC)
Your satellite tracking list
Your tracking list is empty




NASA's NSSDC Master Catalog

Two Line Element Set (TLE):
1 49115U 21077A   23078.65921845 -.00000141  00000-0  00000-0 0  9994
2 49115   0.4018 101.7582 0000404 103.0164 109.9369  1.00272731  5928
Source of the keplerian elements: AFSPC